Home > Weather > Bantam > Past weeks

Flag for Cocos Islands Past Weather in Bantam, Cocos Islands — Yesterday and Last 2 Weeks

Now
81 °F

Cloudy.


Feels Like: 85 °F
Forecast: 81 / 84 °F
Wind: 15 mph from Southeast

Location: Cocos Island Airport

Current Time: Jul 1, 2016 at 6:11:47 PM

Latest Report: Jul 1, 2016 at 5:30 PM


Visibility: N/A

Pressure: 29.86 "Hg

Humidity: 79%

Dew Point: 73 °F

Location of BantamLocation

Past Weather in Bantam — Graph

°F

Bantam Temperature Yesterday

Maximum temperature yesterday: 86 °F (at 12:00 PM)
Minimum temperature yesterday: 79 °F (at 4:00 AM)
Average temperature yesterday: 82 °F

High & Low Weather Summary for the Past Weeks

 TemperatureHumidityPressure
High86 °F (Jun 17, 10:00 AM)100% (Jun 20, 3:00 AM)29.95 "Hg (Jun 20, 3:00 AM)
Low75 °F (Jun 17, 4:30 PM)66% (Jun 22, 1:30 PM)29.65 "Hg (Jun 20, 4:30 AM)
Average82 °F82%29.82 "Hg
* Reported Jun 16 4:30 PM — Jul 1 4:30 PM, Bantam, Weather by CustomWeather, © 2016

Note: Actual official high and low records may vary slightly from our data, if they occured in-between our weather recording intervals... More about our weather records

Advertising

Bantam Weather History for the Previous 24 Hours

Scroll right to see more
 ConditionsComfort  
Time TempWeatherWind HumidityBarometerVisibility
4:30 PM
Fri, Jul 1
82 °FCloudy.16 mph74%29.86 "HgN/A
4:00 PM82 °FBroken clouds.17 mph74%29.83 "HgN/A
3:30 PM82 °FMore clouds than sun.16 mph74%29.83 "HgN/A
2:30 PM84 °FScattered clouds.17 mph74%29.83 "HgN/A
2:00 PM84 °FScattered clouds.18 mph74%29.83 "HgN/A
1:30 PM84 °FScattered clouds.17 mph70%29.86 "HgN/A
1:00 PM84 °FScattered clouds.18 mph70%29.86 "HgN/A
12:30 PM84 °FScattered clouds.18 mph70%29.86 "HgN/A
12:00 PM84 °FPartly sunny.18 mph70%29.89 "HgN/A
11:30 AM82 °FPartly sunny.20 mph74%29.89 "HgN/A
11:00 AM82 °FScattered clouds.20 mph74%29.89 "HgN/A
10:30 AM82 °FScattered clouds.21 mph74%29.92 "HgN/A
10:00 AM82 °FScattered clouds.18 mph70%29.89 "HgN/A
9:30 AM82 °FScattered clouds.20 mph70%29.89 "HgN/A
9:16 AM82 °FScattered clouds.21 mph70%29.89 "HgN/A
9:00 AM82 °FScattered clouds.18 mph70%29.89 "HgN/A
8:30 AM81 °FPartly sunny.20 mph74%29.89 "HgN/A
8:00 AM81 °FPartly sunny.20 mph74%29.89 "HgN/A
7:30 AM81 °FPartly sunny.17 mph74%29.89 "HgN/A
7:00 AM81 °FPassing clouds.17 mph74%29.89 "HgN/A
6:30 AM81 °FPassing clouds.17 mph79%29.89 "HgN/A
6:00 AM81 °FMostly cloudy.17 mph79%29.89 "HgN/A
5:30 AM81 °FOvercast.18 mph79%29.86 "HgN/A
5:00 AM81 °FMostly cloudy.17 mph74%29.86 "HgN/A
4:30 AM81 °FOvercast.17 mph79%29.86 "HgN/A
4:00 AM81 °FOvercast.18 mph79%29.86 "HgN/A
3:30 AM81 °FOvercast.20 mph79%29.86 "HgN/A
2:30 AM82 °FPartly cloudy.17 mph74%29.86 "HgN/A
1:30 AM81 °FPartly cloudy.16 mph79%29.89 "HgN/A
12:30 AM82 °FPartly cloudy.17 mph74%29.89 "HgN/A
12:00 AM82 °FPassing clouds.15 mph74%29.92 "HgN/A
11:30 PM
Thu, Jun 30
82 °FMostly cloudy.15 mph74%29.92 "HgN/A
11:00 PM82 °FPartly cloudy.14 mph74%29.92 "HgN/A
10:30 PM81 °FPassing clouds.15 mph79%29.92 "HgN/A
10:00 PM81 °FClear.17 mph74%29.92 "Hg4 mi
9:30 PM81 °FPassing clouds.16 mph79%29.92 "HgN/A
8:30 PM81 °FPassing clouds.17 mph79%29.92 "HgN/A
8:00 PM81 °FPartly cloudy.16 mph79%29.92 "HgN/A
7:30 PM82 °FPassing clouds.17 mph74%29.89 "HgN/A
7:00 PM82 °FPartly cloudy.15 mph74%29.89 "HgN/A
6:30 PM82 °FScattered clouds.17 mph74%29.89 "HgN/A
6:00 PM82 °FBroken clouds.17 mph74%29.89 "HgN/A
Weather by CustomWeather, © 2016

See weather overviewHow to use our weather pages